Theta_e
304 307 311 315 317 319 319 320 320 328 335 336 335 337 337 340 340 340 339 338 337 336 332 332 330 328 327 328 328 327 324 323 325 324 323 325 329 330 330 331 331 332 332
302 305 307 311 314 316 318 320 321 323 334 340 340 340 339 340 342 342 339 340 339 338 336 333 332 330 328 326 328 327 323 324 326 322 321 318 322 324 329 328 328 328 329
299 301 304 307 311 312 313 317 320 321 324 339 340 328 329 328 333 332 334 338 340 341 339 336 334 331 331 328 328 329 326 322 324 327 325 316 316 315 319 323 325 325 324
297 299 301 302 305 308 310 313 319 323 325 334 337 336 335 334 327 334 336 332 336 338 340 338 335 333 333 331 329 330 328 326 326 328 329 327 324 317 312 319 321 323 324
297 298 299 301 304 306 308 313 317 321 326 332 337 336 330 327 323 321 323 326 327 333 339 339 336 334 335 332 330 328 328 331 329 329 327 327 325 324 320 314 317 318 320
301 302 303 304 305 305 305 309 316 320 323 326 331 331 332 322 321 321 322 323 327 332 336 337 336 335 335 332 332 333 332 331 331 329 329 327 324 322 319 317 313 311 315
299 300 301 303 306 307 305 305 312 318 321 323 326 325 323 322 323 322 323 324 327 330 333 335 334 335 335 334 333 334 333 331 330 329 328 327 326 324 320 318 311 311 312
297 299 301 303 305 307 313 312 305 314 319 322 323 324 323 322 322 322 325 327 330 330 335 337 336 335 336 335 334 334 333 332 331 330 329 327 325 321 322 317 312 309 309
296 298 301 303 304 306 307 310 314 307 316 321 322 319 322 322 322 324 328 330 330 332 334 335 335 335 335 334 332 332 332 331 328 325 323 321 321 323 319 316 315 313 307
297 299 301 303 304 305 305 310 314 307 310 316 321 322 323 324 325 327 330 331 331 333 334 334 334 334 334 334 334 332 331 327 326 326 322 320 320 319 318 318 316 314 311
297 300 301 304 303 303 305 312 317 309 307 313 317 321 325 326 329 331 331 332 333 333 334 334 333 334 333 335 333 331 329 328 325 322 321 321 321 320 319 317 315 314 313
299 300 301 303 302 302 310 313 320 312 313 320 324 327 329 331 331 331 331 332 331 333 335 336 336 335 335 332 330 327 328 325 322 322 321 321 324 319 319 319 315 314 314
300 300 301 301 301 307 311 315 322 321 322 327 330 332 332 331 330 331 333 334 334 336 336 335 334 334 331 329 329 329 326 323 323 322 321 322 322 320 318 316 314 314 317
300 301 300 300 306 311 317 316 328 326 330 333 333 333 332 333 333 334 335 334 335 334 334 334 333 333 332 331 329 327 323 323 323 323 323 322 322 324 321 317 315 316 317
299 301 300 304 307 315 321 321 331 332 333 334 334 335 334 335 337 336 335 334 334 334 333 331 330 330 329 328 324 323 322 321 321 322 324 324 325 322 321 318 315 316 317
299 301 304 307 309 314 321 325 332 333 335 333 333 334 334 334 335 334 332 331 328 329 329 326 326 322 321 307 313 320 322 322 321 320 322 322 323 320 314 315 315 318 320
305 306 307 308 309 315 319 319 330 333 332 331 332 331 330 329 329 328 327 326 325 323 321 319 318 316 315 303 306 311 321 320 319 319 319 321 323 321 318 311 312 311 311
304 307 312 313 315 317 317 319 319 318 331 330 329 329 328 325 325 325 324 323 322 319 318 317 318 316 313 303 303 309 320 318 319 319 320 320 320 320 320 319 317 316 317
304 309 314 315 318 319 320 318 319 318 325 328 328 328 326 324 324 323 324 322 321 318 317 318 317 317 316 302 302 314 317 316 320 320 322 323 322 306 304 318 316 313 312
304 307 315 318 317 321 320 320 320 321 327 328 327 325 326 325 323 324 322 321 321 320 319 316 319 313 316 300 302 312 317 317 318 318 316 307 313 301 303 318 317 315 314
304 309 316 317 318 320 321 320 318 324 327 326 324 324 324 323 322 321 324 324 321 317 316 315 316 318 313 308 300 306 319 318 315 316 315 310 298 297 299 306 316 314 314
304 310 316 316 319 318 318 319 318 323 322 322 321 322 323 324 325 323 323 322 318 317 315 316 318 318 316 305 301 302 308 309 317 315 312 306 298 298 300 308 297 300 310
308 314 318 316 318 322 322 320 321 322 321 321 320 323 324 324 324 322 321 320 319 317 316 316 316 316 316 310 298 298 301 304 316 316 305 297 296 297 299 297 299 305 318
313 317 318 316 318 322 323 322 323 322 321 320 320 322 323 322 323 323 322 320 318 317 316 316 316 316 315 314 313 312 310 303 305 304 306 304 303 303 303 310 313 317 318
315 318 319 320 320 322 321 323 323 322 321 319 320 321 321 318 310 304 309 319 315 316 318 317 317 316 314 314 309 311 314 314 308 312 315 314 314 314 314 315 315 316 317
319 320 320 321 321 323 323 321 323 322 320 319 319 316 315 315 311 311 307 295 297 300 302 305 312 314 303 298 298 297 297 298 300 314 314 313 314 314 314 313 314 315 313
Wind_Speed
9 8 8 13 11 7 7 10 8 10 5 4 2 5 7 9 7 9 10 9 9 11 10 7 7 8 9 9 9 5 6 4 4 3 2 3 5 5 5 4 5 6 5
8 9 9 7 9 13 9 11 13 14 9 9 7 7 7 9 9 7 6 9 10 11 10 10 9 10 7 7 9 8 3 3 5 4 1 2 3 2 4 1 3 6 5
15 12 10 9 8 9 11 14 14 14 12 16 9 3 2 1 3 3 4 8 11 9 11 10 9 9 9 8 9 9 9 5 3 6 4 2 5 0 2 2 1 3 4
11 13 13 10 9 9 10 13 15 15 14 16 15 20 17 14 5 6 6 6 7 9 9 10 9 9 8 7 9 8 8 5 5 2 3 1 4 3 2 3 2 2 3
8 10 14 13 15 12 10 11 12 9 11 13 17 13 10 6 3 3 5 5 5 7 10 10 10 10 8 7 9 7 7 6 4 4 3 1 2 2 3 3 2 2 1
9 10 9 11 11 11 8 8 9 11 9 11 15 16 17 9 5 4 5 5 4 5 7 8 9 8 8 8 8 8 9 8 5 4 4 4 4 3 3 2 3 2 2
8 9 10 11 12 12 12 8 8 11 9 12 13 14 14 12 13 11 8 6 4 3 6 8 8 8 8 7 6 6 6 7 6 7 5 2 4 4 3 3 1 3 2
8 10 10 9 9 12 13 13 9 11 9 12 14 12 12 8 8 8 6 6 5 5 8 8 7 7 7 6 5 4 4 6 5 6 5 3 4 4 3 5 5 1 1
11 11 14 8 9 10 12 13 11 12 12 13 11 9 8 8 9 8 7 5 5 5 7 7 7 7 6 7 7 5 6 6 5 5 6 3 3 3 3 3 3 5 3
13 12 12 10 8 9 12 15 9 11 13 12 11 10 10 8 7 7 7 7 6 7 9 9 7 7 7 7 7 5 6 7 4 4 6 4 3 4 3 3 3 3 4
15 15 14 13 10 10 13 14 11 9 9 10 9 8 8 8 8 8 7 8 8 9 9 8 7 7 7 6 7 6 6 7 6 5 6 6 5 4 3 3 2 3 3
13 16 15 13 13 11 13 11 11 8 10 10 9 9 8 10 9 8 8 9 8 8 10 9 8 7 7 7 7 7 6 7 7 6 6 6 4 4 4 4 4 3 3
17 15 12 11 12 11 13 10 10 9 7 9 11 11 11 11 10 9 9 9 10 9 8 8 8 9 8 7 7 7 7 6 7 7 7 6 6 5 3 4 4 3 2
16 11 11 10 12 10 10 7 8 5 7 11 12 12 11 10 10 11 11 10 9 10 9 8 8 9 8 7 6 6 6 6 6 6 6 6 7 6 6 5 5 4 4
16 16 9 8 11 10 7 5 3 4 6 9 11 9 9 9 10 11 11 10 10 9 9 9 7 7 7 5 7 6 6 6 6 5 5 5 6 8 8 6 6 6 4
22 22 23 13 13 10 6 4 6 7 8 8 8 10 11 11 11 12 12 11 9 10 10 8 8 7 4 4 8 8 6 5 6 5 5 4 5 6 10 10 11 10 11
15 19 17 12 6 9 5 3 8 7 10 11 10 12 13 13 13 12 13 12 9 9 8 8 7 6 5 4 8 8 5 5 5 5 5 4 3 5 7 5 9 6 5
19 20 8 6 5 6 5 6 4 9 6 10 12 14 14 14 12 12 11 11 8 9 8 7 7 7 3 4 8 8 5 4 4 5 6 6 5 4 8 7 6 6 5
16 15 16 11 5 5 4 1 5 6 5 13 14 15 14 14 12 12 10 9 10 8 6 6 7 8 5 5 8 8 5 5 4 4 5 4 6 6 10 9 9 6 4
15 16 17 9 7 2 4 6 4 5 18 16 15 14 13 13 12 12 10 6 8 9 7 7 7 7 5 4 7 6 4 6 4 5 4 8 7 8 8 10 10 8 4
18 16 15 4 5 4 5 6 9 8 15 15 14 13 12 11 11 8 11 11 10 9 8 9 7 7 5 4 5 6 3 5 4 4 4 3 9 9 9 10 7 6 7
17 14 10 3 4 2 5 4 10 11 13 13 13 12 11 10 9 13 9 11 11 11 9 9 6 4 4 4 4 7 7 4 6 4 3 5 9 9 10 7 11 13 9
15 10 7 2 6 10 12 10 13 15 13 12 11 12 12 11 11 12 10 9 8 8 6 5 5 4 2 3 8 9 9 8 5 4 6 11 11 11 9 11 13 8 6
11 9 6 8 2 5 5 6 15 15 14 13 11 10 11 10 9 8 7 8 7 8 6 6 5 4 3 3 3 4 5 8 8 10 5 8 9 10 8 6 5 4 4
11 8 6 2 4 5 6 9 13 14 14 12 10 9 10 11 9 8 4 4 5 6 9 7 6 6 4 2 5 6 4 4 6 8 5 5 4 5 5 4 4 4 4
7 1 5 1 4 6 5 8 12 13 14 12 9 8 8 8 8 7 6 16 9 8 10 10 7 3 9 10 9 10 12 12 9 4 5 5 4 5 4 4 4 3 4
Wind_Direction
270 275 244 234 253 252 207 209 196 231 195 182 215 250 217 222 218 212 205 178 192 196 194 198 198 188 197 199 189 183 178 209 172 95 288 258 235 239 232 190 186 213 220
296 295 288 242 212 227 232 223 211 220 204 212 221 222 241 241 226 200 183 190 196 198 192 195 202 196 197 182 182 179 161 190 167 161 150 280 295 280 244 223 222 237 219
295 296 297 286 272 215 216 225 225 219 214 210 201 123 95 126 158 203 202 207 207 198 196 199 197 192 193 195 187 184 177 180 188 194 172 136 223 295 353 3 257 244 227
305 312 314 305 291 270 260 212 210 218 217 209 207 209 216 214 208 203 215 213 188 206 200 203 196 193 196 193 189 186 183 145 160 183 229 251 150 166 335 326 323 274 222
323 317 318 317 306 301 276 262 259 209 201 192 203 205 209 194 168 151 181 205 191 197 205 203 194 194 190 189 173 162 164 188 149 164 148 160 41 79 151 239 286 345 313
301 303 296 299 303 307 284 277 261 251 206 192 205 201 204 192 174 185 198 211 203 197 199 187 186 187 182 175 174 172 174 185 172 180 188 155 164 193 157 194 205 202 284
285 290 300 310 310 314 310 281 252 249 227 203 202 200 196 193 199 207 204 179 186 189 189 171 173 182 178 167 149 157 159 167 177 179 188 166 160 144 141 140 134 213 289
273 285 282 281 288 300 304 308 272 246 225 212 207 206 207 203 205 198 187 190 181 193 174 175 172 160 155 142 149 139 140 156 163 171 164 167 181 157 162 156 143 95 307
288 283 289 271 273 291 292 292 296 264 239 219 211 195 191 180 194 193 178 179 162 166 165 144 149 157 146 150 154 147 151 163 162 168 160 144 157 162 164 142 136 145 200
293 289 288 272 267 281 280 284 261 258 237 218 213 197 191 190 177 163 172 167 154 165 144 144 150 146 147 145 145 133 146 146 159 149 160 143 135 158 160 149 139 148 153
292 294 288 285 278 278 277 275 283 249 221 211 203 187 179 169 168 168 156 161 162 151 145 150 146 145 149 148 132 150 147 148 154 156 159 163 157 164 154 143 143 158 138
281 285 286 281 282 277 279 270 283 225 215 196 177 182 163 158 156 147 156 153 141 142 147 151 147 147 147 140 146 146 153 154 162 162 155 177 165 163 157 152 162 167 165
297 292 276 267 266 264 273 265 276 236 187 170 165 156 155 152 147 148 146 142 139 141 138 138 145 147 145 150 147 155 163 166 169 170 171 180 170 173 160 162 155 167 128
296 278 271 268 265 269 264 265 278 219 165 163 156 149 152 149 144 142 141 133 140 139 148 149 141 143 150 146 149 151 159 175 178 180 180 182 185 180 169 163 167 149 118
290 299 259 258 269 275 260 252 225 160 144 151 132 141 131 134 144 137 132 138 137 138 136 128 113 115 128 147 156 161 169 169 180 186 187 207 194 185 170 153 165 140 120
286 298 295 258 256 252 253 250 168 145 135 120 124 134 131 135 139 126 130 130 126 125 122 106 114 122 118 163 174 160 164 174 184 186 203 174 181 181 165 166 158 162 150
295 298 283 228 280 251 208 58 119 144 121 127 147 136 131 130 124 131 126 120 119 104 105 106 116 116 119 137 150 137 141 165 176 167 160 165 163 165 150 159 155 136 117
321 315 312 284 266 258 181 162 171 81 115 138 140 130 127 113 113 117 118 114 109 117 116 111 112 109 100 107 131 137 130 135 167 163 166 154 151 154 139 150 128 120 111
293 297 299 290 264 220 132 70 179 133 137 153 143 126 124 125 125 118 122 112 111 106 103 106 110 117 94 86 125 111 108 103 102 142 147 174 117 159 146 134 126 112 88
300 306 309 292 308 233 85 152 297 12 184 145 129 125 131 132 126 127 121 105 107 107 106 102 105 102 104 97 124 117 114 114 100 75 84 93 109 142 154 127 132 128 131
296 302 301 299 302 140 93 108 203 183 137 128 124 127 128 122 121 110 119 116 108 103 96 107 107 107 98 69 98 116 110 125 114 115 109 91 122 120 109 111 125 133 124
299 307 308 334 323 195 41 291 207 208 124 126 131 126 121 122 124 116 111 112 113 114 117 112 96 78 91 68 95 103 106 105 119 114 94 111 122 112 111 97 119 120 113
300 292 288 272 254 272 200 138 145 121 120 120 122 127 123 125 124 117 117 111 117 121 117 120 122 111 89 72 69 82 91 87 99 99 108 114 103 96 79 112 121 120 114
300 281 300 248 241 78 120 149 132 129 123 123 120 120 118 113 112 114 125 132 127 127 127 140 137 124 109 102 94 95 93 84 86 100 86 91 85 86 106 106 82 81 107
284 275 269 120 53 27 113 140 124 126 123 120 114 115 115 109 91 64 48 104 78 139 151 157 148 146 142 148 137 136 125 117 116 115 101 97 98 105 97 90 91 95 107
262 221 126 162 13 69 103 131 125 128 126 123 121 114 112 113 120 120 92 46 51 75 126 129 139 88 120 126 124 116 116 123 139 101 116 112 119 116 108 103 92 88 105